Location: ??????
(36.0418°N, 43.6351°E)
Time: 01:16:10
(UTC+00:00)

S3M - Pass Details

Date: 07 March 2021
Orbit: 950 x 1003 km, 83.0° (Epoch: 22 April)

Event Time Altitude Azimuth Distance (km) Brightness Sun altitude
Exits shadow 00:44:30 53° 24° (NNE) 1,161 4.5 -33.4°
Drops below altitude 10° 00:49:09 10° 10° (N) 2,700 6.6 -32.5°
Sets 00:51:41 0° 9° (N) 3,657 7.3 -32.0°
